Flag for Canada

Past Weather in Kawartha Lakes, Ontario, Canada — Yesterday and Last 2 Weeks

Now
62 °F

Cool.


Feels Like: 62 °F
Forecast: 86 / 60 °F
Wind: 3 mph from Northeast

Location: Lagoon City

Current Time: Jul 5, 2020 at 4:20:24 am

Latest Report: Jul 5, 2020 at 3:00 am


Visibility: N/A

Pressure: 29.94 "Hg

Humidity: 78%

Dew Point: 55 °F

Location of Kawartha LakesLocation

Past Weather in Kawartha Lakes — Graph

°F

Kawartha Lakes Temperature Yesterday

Maximum temperature yesterday: 79 °F (at 6:00 pm)
Minimum temperature yesterday: 62 °F (at 6:00 am)
Average temperature yesterday: 72 °F

High & Low Weather Summary for the Past Weeks

 TemperatureHumidityPressure
High84 °F (Jul 2, 5:00 pm)94% (Jun 22, 1:00 am)30.00 "Hg (Jun 22, 1:00 am)
Low58 °F (Jun 24, 11:00 am)34% (Jul 4, 12:00 pm)29.43 "Hg (Jun 23, 7:00 pm)
Average71 °F72%29.82 "Hg
* Reported Jun 20 3:00 am — Jul 5 3:00 am, Kawartha Lakes. Weather by CustomWeather, © 2020

Note: Actual official high and low records may vary slightly from our data, if they occured in-between our weather recording intervals... More about our weather records

Kawartha Lakes Weather History for the Previous 24 Hours

Scroll right to see more
 ConditionsComfort  
Time TempWeatherWind HumidityBarometerVisibility
3:00 am
Sun, Jul 5
62 °FCool.3 mph78%29.94 "HgN/A
2:00 am67 °FMild.2 mph71%29.94 "HgN/A
1:00 am67 °FMild.2 mph67%29.94 "HgN/A
12:00 am68 °FMild.6 mph59%29.95 "HgN/A
11:00 pm
Sat, Jul 4
69 °FMild.3 mph57%29.95 "HgN/A
10:00 pm72 °FMild.7 mph51%29.94 "HgN/A
9:00 pm72 °FMild.6 mph52%29.93 "HgN/A
7:00 pm78 °FWarm.12 mph43%29.94 "HgN/A
6:00 pm79 °FWarm.17 mph41%29.94 "HgN/A
5:00 pm78 °FWarm.7 mph56%29.96 "HgN/A
4:00 pm77 °FMild.12 mph58%29.96 "HgN/A
3:00 pm77 °FMild.10 mph55%29.96 "HgN/A
2:00 pm74 °FMild.12 mph57%29.96 "HgN/A
1:00 pm76 °FMild.6 mph52%29.98 "HgN/A
12:00 pm78 °FPleasantly warm.7 mph34%29.98 "HgN/A
11:00 am76 °FMild.8 mph40%29.98 "HgN/A
10:00 am74 °FMild.9 mph46%29.99 "HgN/A
9:00 am71 °FMild.10 mph55%29.98 "HgN/A
8:00 am67 °FMild.8 mph66%29.96 "HgN/A
7:00 am63 °FMild.6 mph74%29.96 "HgN/A
6:00 am62 °FCool.7 mph71%29.96 "HgN/A
5:00 am64 °FMild.7 mph70%29.95 "HgN/A
4:00 am64 °FMild.7 mph72%29.94 "HgN/A
Weather by CustomWeather, © 2020

See weather overview